Location: Garzáin
(43.1301°N, 1.5373°W)
Time: 16:56:41
(UTC+00:00)

Cosmos 2173 Rocket - Pass Details

Date: 21 November 2025
Orbit: 943 x 1000 km, 83.0° (Epoch: 12 December)

Event Time Altitude Azimuth Distance (km) Brightness Sun altitude
Rises 16:59:23 0° 215° (SW) 3,645 8.2 -4.5°
Reaches altitude 10° 17:02:11 10° 226° (SW) 2,693 7.7 -5.0°
Maximum altitude 17:07:35 31° 287° (WNW) 1,599 5.8 -5.9°
Drops below altitude 10° 17:12:58 10° 349° (N) 2,680 6.2 -6.8°
Sets 17:15:46 0° 360° (N) 3,624 6.8 -7.3°
